SHIYAN 30-03

导读

SHIYAN 30-03(NORAD编号68139)是中国研制的试验三十号03星,于北京时间2026年3月13日6时33分,在西昌卫星发射中心由长征二号丁运载火箭发射升空,顺利进入预定轨道,任务取得圆满成功。该卫星和试验三十号04星一同发射,主要用于对地观测技术的试验验证,将为我国后续对地观测领域的技术创新提供实践支撑,推动相关遥感观测技术的成熟与应用落地。此次发射也是长征系列运载火箭的第632次飞行任务。

Basic Information
目录编号:
68139
目录名称:
SHIYAN 30-03
国际标识:
2026-048A
轨道中心:
EARTH
卫星名称:
SHIYAN 30-03
卫星全名:
SHIYAN 30-03
卫星状态:
在轨 (已飞行186 天)
发射日期:
2026-03-12 UTC
国别 :
中国 (CN)
星等 :
--
This satellite is enrolled in the Space Conjunction Data Service (SCDS) and the current flight risk assessment level is: No High Risk
Orbit Information
数据来源 国际轨道数据 AOE轨道数据
星历时间 2026-09-14T02:21:41+0800
7小时前
查看轨道信息
2026-09-10T18:00:00+0800
3天前
查看轨道信息
半长轴 6969.94km 6969.982km
偏心率 0.0004153 0.0004486
轨道倾角 34.999° 35.001°
近地点辐角 12.922° 341.865°
升交点赤经 97.066° 117.133°
平近点角 347.159° 4.951°
近地点 588.908km 588.718km
远地点 594.698km 594.972km
周期 96.517分钟 96.518分钟
每日圈数 14.91967 14.919535
Detailed Information
使用方式:
暂无
2D Orbit Map
3D Orbit Map
Orbit Altitude Analysis Chart
Orbit Inclination Analysis Chart
Orbit Comprehensive Analysis Chart
View Comprehensive Chart
Miss Distance Evolution Trend with All Objects
Collision Probability Evolution Trend with All Objects